Regional Weather Roundup
Issued by NWS

Home | Current Version | Previous Version | Graphics & Text | Print | Product List | Glossary On
Versions: 1 2 3 4 5 6 7 8 9 10 11 12 13 14 15 16 17 18 19 20 21 22 23 24 25 26 27 28 29 30 31 32 33 34 35 36 37 38 39 40 41 42 43 44 45 46 47 48 49 50
000
ASUS43 KMPX 281801
RWRMN
WEATHER ROUNDUP FOR MINNESOTA
NATIONAL WEATHER SERVICE TWIN CITIES/CHANHASSEN MN
100 PM CDT WED SEP 28 2016


NOTE: "FAIR" INDICATES FEW OR NO CLOUDS BELOW 12,000 FEET WITH NO
SIGNIFICANT WEATHER AND/OR OBSTRUCTIONS TO VISIBILITY. N/A MEANS
CURRENT SKY AND/OR WEATHER CONDITIONS ARE NOT AVAILABLE.

MNZ060>063-068>070-281900-
   Twin Cities Metro

CITY           SKY/WX    TMP DP  RH WIND       PRES   REMARKS
TWIN CITIES    CLOUDY    59  49  69 N12       30.18R
6HR MIN TEMP:  51; 6HR MAX TEMP:  60;

ST PAUL        CLOUDY    59  49  69 N12G18    30.19R
CRYSTAL        CLOUDY    60  47  61 N10       30.18R
LAKEVILLE      CLOUDY    57  48  72 N8G16     30.18R
EDEN PRAIRIE   CLOUDY    60  48  64 N9G21     30.18R
6HR MIN TEMP:  52; 6HR MAX TEMP:  60;

LAKEVILLE      CLOUDY    57  48  72 N8G16     30.18R
SOUTH ST PAUL  CLOUDY    60  48  65 N14       30.17R
LAKE ELMO      CLOUDY    59  50  72 N9        30.19R
$$
MNZ001>005-007-008-013>017-022>024-027-028-281900-
   Northwest Minnesota

CITY           SKY/WX    TMP DP  RH WIND       PRES   REMARKS
BEMIDJI        CLOUDY    55  47  75 NE6       30.29R
HALLOCK        CLOUDY    55  46  71 CALM      30.32S
ROSEAU         CLOUDY    57  48  72 CALM      30.31S
WARROAD        CLOUDY    57  52  82 E8        30.32R
THIEF RVR FALL CLOUDY    57  47  69 CALM      30.31R
CROOKSTON      CLOUDY    55  48  76 N6          N/A
FOSSTON        CLOUDY    55  54  94 NE3       30.31R
DETROIT LAKES  PTSUNNY   55  46  71 NE7       30.29R
MOORHEAD       PTSUNNY   57  46  67 N7        30.30S
PARK RAPIDS    PTSUNNY   58  44  60 N9        30.27R
MAHNOMEN       CLOUDY    56  47  70 N7        30.29S
$$
MNZ006-009>011-018-025>026-281900-
   North Central Minnesota

CITY           SKY/WX    TMP DP  RH WIND       PRES   REMARKS
BAUDETTE       SUNNY     57  49  74 SW3       30.30F
FLAG ISLAND    CLOUDY    55  50  82 S5        30.30R
INTL FALLS     CLOUDY    57  47  69 NE6       30.29R
6HR MIN TEMP:  51; 6HR MAX TEMP:  59;

WASKISH        CLOUDY    55  50  82 N5        30.30R
BIG FORK       CLOUDY    57  48  72 N6        30.28R
GRAND RAPIDS   CLOUDY    57  46  66 NE6       30.28R
ORR            CLOUDY    57  45  62 CALM      30.25S
COOK           CLOUDY    55  48  76 N3        30.27S
WALKER         CLOUDY    55  47  72 NE6       30.28R
$$
MNZ012-019>021-037-281900-
   Northeast Minnesota

CITY           SKY/WX    TMP DP  RH WIND       PRES   REMARKS
DULUTH         CLOUDY    58  49  72 N9        30.22R
6HR MIN TEMP:  49; 6HR MAX TEMP:  58;

ELY            CLOUDY    55  46  71 N5        30.25R
HIBBING        CLOUDY    55  47  74 N7        30.26R
EVELETH        CLOUDY    57  48  73 N5        30.26R
DULUTH HARBOR  CLOUDY    59  54  82 NE10      30.23R
TWO HARBORS    PTSUNNY   61  52  72 E8        30.21R
SILVER BAY     CLOUDY    57  50  77 E3        30.21R
GRAND MARAIS     N/A     61  45  55 NE10      30.21R
G MARAIS ARPRT CLOUDY    54  45  71 N8        30.24R
$$
MNZ029>031-032-039>041-046>048-054>057-064-281900-
   West Central Minnesota

CITY           SKY/WX    TMP DP  RH WIND       PRES   REMARKS
FERGUS FALLS   CLOUDY    57  46  67 N3        30.30R
MORRIS         CLOUDY    59  46  63 N10       30.26R
ALEXANDRIA     PTSUNNY   61  48  62 N8        30.27R
ELBOW LAKE     CLOUDY    56  47  72 N7        30.28R
WADENA         CLOUDY    55  46  71 N8        30.27R
GLENWOOD       MOSUNNY   61  48  63 NE8       30.25R
BENSON         CLOUDY    61  45  55 NE9       30.25R
ORTONVILLE     PTSUNNY   55  45  67 N12       30.28R
MADISON        CLOUDY    57  48  72 N9        30.27R
WILLMAR        PTSUNNY   61  50  67 N10       30.24S
$$
MNZ033>034-036-042>043-049>051-058-059-281900-
   Central Minnesota

CITY           SKY/WX    TMP DP  RH WIND       PRES   REMARKS
ST CLOUD       CLOUDY    58  50  75 N13       30.23R
6HR MIN TEMP:  47; 6HR MAX TEMP:  59;

SAUK CENTRE    CLOUDY    59  47  66 NE10      30.24S
PAYNESVILLE    PTSUNNY   62  47  57 N7        30.24R
AITKIN         CLOUDY    61  46  59 N8        30.24R
PINE RIVER     CLOUDY    57  48  72 NE7       30.29R
BRAINERD       CLOUDY    57  47  69 NE12      30.26R
STAPLES        CLOUDY    59  45  58 NE6       30.25R
LONG PRAIRIE   CLOUDY    55  45  67 N8        30.25R
LITTLE FALLS   CLOUDY    55  45  67 NE3       30.25R
LITCHFIELD     PTSUNNY   63  50  63 N10G16    30.23R
BUFFALO        CLOUDY    58  49  70 NW8       30.22R
MAPLE LAKE     CLOUDY    59  51  76 N10       30.23R
HUTCHINSON     CLOUDY    61  49  66 N9        30.23R
$$
MNZ037-044-045-052-053-281900-
   East Central Minnesota

CITY           SKY/WX    TMP DP  RH WIND       PRES   REMARKS
PRINCETON      CLOUDY    61  50  67 N12       30.22R
MORA           CLOUDY    55  46  71 N5        30.23S
CAMBRIDGE      CLOUDY    61  46  59 N12G17    30.20R
MOOSE LAKE     CLOUDY    57  46  67 N8        30.21R
HINCKLEY       CLOUDY    59  50  72 N8        30.22R
CLOQUET        CLOUDY    57  46  67 N7        30.23R
MCGREGOR       CLOUDY    55  46  71 N8        30.25R
$$
MNZ071>073-080-081-089-090-097-098-281900-
   Southwest Minnesota

CITY           SKY/WX    TMP DP  RH WIND       PRES   REMARKS
MONTEVIDEO     CLOUDY    61  48  63 N9        30.27R
GRANITE FALLS  CLOUDY    60  49  67 NW7       30.26R
CANBY          CLOUDY    54  47  77 NW6       30.28R
MARSHALL       CLOUDY    54  46  74 NW8       30.27R
REDWOOD FALLS  PTSUNNY   61  47  59 N6        30.22R
OLIVIA         PTSUNNY   59  46  63 N9        30.22R
PIPESTONE      MOSUNNY   54  45  71 NE13      30.25R
WINDOM         CLOUDY    57  46  67 N10G21    30.22R
WORTHINGTON    CLOUDY    53  46  77 N8        30.24R
JACKSON        PTSUNNY   59  45  58 N13         N/A
TRACY          CLOUDY    55  47  76 NW10      30.25R
$$
MNZ065>067-074>077-082>085-091>093-281900-
   South Central Minnesota

CITY           SKY/WX    TMP DP  RH WIND       PRES   REMARKS
MANKATO        CLOUDY    57  48  72 N14       30.20R
ST JAMES       CLOUDY    57  46  67 N14       30.22R
FAIRMONT       CLOUDY    57  46  66 N15G21    30.20R
GLENCOE        CLOUDY    59  52  78 N9        30.20S
FARIBAULT      CLOUDY    57  48  72 N6        30.18R
OWATONNA       CLOUDY    57  48  72 N17       30.17R
WASECA         CLOUDY    55  46  71 N13       30.18R
ALBERT LEA     CLOUDY    57  48  72 N10G20    30.15R
$$
MNZ078>079-086>088-094>096-281900-
   Southeast Minnesota

CITY           SKY/WX    TMP DP  RH WIND       PRES   REMARKS
ROCHESTER      CLOUDY    59  50  72 N14       30.13R
6HR MIN TEMP:  50; 6HR MAX TEMP:  60; 6HR PCP:  0.01;

RED WING       PTSUNNY   64  48  55 N9G17     30.13R
STANTON        CLOUDY    60  49  68 N13       30.15R
DODGE CENTER   CLOUDY    57  48  72 N10       30.14R
WINONA         CLOUDY    59  50  72 NE10      30.10R
AUSTIN         CLOUDY    57  48  72 N10       30.14R
PRESTON        CLOUDY    56  49  77 N13G22    30.11R
$$
ABBREVIATIONS USED IN REMARKS
   TC - TEMPERATURES IN CELSIUS
  WCI - WIND CHILL INDEX
   HX - HEAT INDEX
  VSB - VISIBILITY
$$




USA.gov is the U.S. government's official web portal to all federal, state and local government web resources and services.